User: anonymous   Login
Location: Salamanca
(40.9670°N, 5.6500°W)
Time: 22:17:06
(UTC+02:00)
Language:

Cosmos 1633 Rocket - Orbit

View from above orbital plane
View from above orbital plane
View from above satellite
View from above satellite

Ground track
Ground track

The orbit data is extracted from the following two-line orbital elements,

1 15593U 85020B   16274.17142758  .00000170  00000-0  17476-4 0  9990
2 15593  82.5381 145.9762 0011787 171.1679 304.6173 14.84233180705800
Epoch (UTC): 30 September 2016 04:06:51
Eccentricity: 0.0011787
inclination: 82.5381°
perigee height: 608 km
apogee height: 624 km
right ascension of ascending node: 145.9762°
argument of perigee: 171.1679°
revolutions per day: 14.84233180
mean anomaly at epoch: 304.6173°
orbit number at epoch: 70580

The dashed part of the orbit path shows where the satellite is in the earth's shadow,  

DLR